P/2012 SB6 ( Lemmon )

Japanese version
Home page
Updated on September 14, 2013

---------------------------------------------------------------------

* Profile

Discovery Date September 17, 2012
Magnitude 19.3 mag
Discoverer R. A. Kowalski (Mount Lemmon Survey)

* Pictures

* Orbital Elements

Epoch 2012 Nov. 9.0 TT = JDT 2456240.5
T 2012 Oct. 31.99581 TT                                 MPC
q   2.4064802            (2000.0)            P               Q
n   0.12744298     Peri.   12.79399     +0.92554491     -0.37731262
a   3.9107385      Node     9.55715     +0.32843524     +0.75842459
e   0.3846482      Incl.   10.98982     +0.18840626     +0.53143892
P   7.73
From 178 observations 2012 Sept. 14-2013 Feb. 6, mean residual 0".5.

* Magnitudes Graph

        m1 = 13.5 + 5 log d + 10.0 log r

---------------------------------------------------------------------

The orbital elements are published on M.P.E.C. 2013-C52.
The magnitudes graphs are made with Comet for Windows.

---------------------------------------------------------------------

Copyright(C) Seiichi Yoshida (comet@aerith.net). All rights reserved.